Flag for India Weather past 2 weeks in Jaipur, Rajasthan, India

Now
63 °F

Thunderstorms. Partly cloudy.


Feels Like: 63 °F
Forecast: 60 / 70 °F
Wind: 16 mph from Southeast

Location: Jaipur / Sanganer

Current Time: Mar 1, 2015 at 2:38:47 AM

Latest Report: Mar 1, 2015 at 2:00 AM


Visibility: 1 mi

Pressure: 29.86 "Hg

Humidity: 88%

Dew point: 59 °F

Location of JaipurLocation

Historic Weather in Jaipur — Graph

°F

Jaipur temperature yesterday

Maximum temperature yesterday: 79 °F (at 12:00 PM)
Minimum temperature yesterday: 63 °F (at 5:00 AM)
Average temperature yesterday: 70 °F

Past Weeks' High & Low Weather Summary

 TemperatureHumidityPressure
High95 °F (Feb 23, 7:30 PM)94% (Feb 18, 4:00 AM)30.09 "Hg (Feb 18, 4:00 AM)
Low57 °F (Feb 14, 5:30 AM)11% (Feb 26, 5:00 PM)29.77 "Hg (Feb 25, 4:00 PM)
Average74 °F41%29.93 "Hg
* Reported Midnight between Feb 13 and Feb 14 — Midnight between Feb 28 and Mar 1, Jaipur, Weather by CustomWeather, © 2015

Note: Actual official high and low records may vary slightly from our data, if they occured in-between our weather recording intervals... More about our weather records

Advertising

Jaipur weather history for previous 24 hours

 ConditionsComfort  
Time TempWeatherWind HumidityBarometerVisibility
12:00 AM
Sun, Mar 1
66 °FPartly cloudy.12 mph60%29.89 "Hg2 mi
11:00 PM
Sat, Feb 28
66 °FPartly cloudy.10 mph60%29.89 "Hg2 mi
10:00 PM68 °FPartly cloudy.7 mph60%29.89 "Hg2 mi
9:00 PM68 °FPartly cloudy.8 mph64%29.89 "Hg2 mi
7:00 PM70 °FPartly cloudy.3 mph57%29.92 "Hg2 mi
6:00 PM75 °FDrizzle. Broken clouds.13 mph41%29.86 "Hg2 mi
5:00 PM77 °FBroken clouds.13 mph34%29.86 "Hg2 mi
4:00 PM79 °FBroken clouds.14 mph34%29.86 "Hg2 mi
3:30 PM79 °FBroken clouds.14 mph34%29.89 "Hg2 mi
3:00 PM79 °FBroken clouds.14 mph34%29.92 "Hg2 mi
2:30 PM79 °FBroken clouds.14 mph32%29.92 "Hg2 mi
2:00 PM79 °FBroken clouds.15 mph32%29.92 "Hg2 mi
1:00 PM79 °FBroken clouds.16 mph30%29.95 "Hg2 mi
12:00 PM79 °FScattered clouds.14 mph26%29.98 "Hg2 mi
11:00 AM73 °FScattered clouds.16 mph29%30.01 "Hg2 mi
9:00 AM66 °FScattered clouds.12 mph35%30.01 "Hg1 mi
8:00 AM64 °FScattered clouds.12 mph40%29.98 "Hg1 mi
7:30 AM63 °FHaze.9 mph42%29.98 "Hg1 mi
7:00 AM63 °FHaze.9 mph42%29.95 "Hg1 mi
6:30 AM63 °FHaze.8 mph42%29.95 "Hg1 mi
6:00 AM63 °FHaze.9 mph42%29.92 "Hg1 mi
5:30 AM63 °FHaze.10 mph39%29.92 "Hg1 mi
5:00 AM63 °FHaze.10 mph39%29.92 "Hg1 mi
4:00 AM64 °FHaze.10 mph37%29.92 "Hg1 mi
3:00 AM64 °FHaze.8 mph37%29.92 "Hg1 mi
2:30 AM66 °FHaze.8 mph32%29.95 "Hg1 mi
2:00 AM66 °FHaze.7 mph35%29.95 "Hg1 mi
Weather by CustomWeather, © 2015

See weather overviewHow to use our weather pages